Sarasota, FL

1:16 PM EST on December 06, 2019 (GMT -0500)
Sarasota-bradenton

Weather History for KSRQ - August, 2019

Change the Weather History Date:

Tuesday, August 6, 2019

  Actual Average Record
Temperature  
Mean Temperature 83 °F 82 °F  
Max Temperature 90 °F 90 °F 95 °F (1970)
Min Temperature 76 °F 75 °F 69 °F (1947)
Degree Days  
Heating Degree Days 0 0  
Month to date heating degree days 0 0  
Since 1 June heating degree days 0 0  
Since 1 July heating degree days 0 0  
Cooling Degree Days 18 17  
Month to date cooling degree days 110 102  
Year to date cooling degree days 2381 1864  
Since 1 June cooling degree days 1224 1113  
Growing Degree Days 32 (Base 50)    
Moisture  
Dew Point 75 °F    
Average Humidity 83    
Maximum Humidity 91    
Minimum Humidity 64    
Precipitation  
Precipitation 0.38 in 0.25 in 3.35 in (1999)
Month to date precipitation 1.99 1.64  
Year to date precipitation 30.52 30.83  
Sea Level Pressure  
Sea Level Pressure 29.98 in    
Wind  
Wind Speed 7 mph (NE)    
Max Wind Speed 15 mph    
Max Gust Speed 21 mph    
Visibility 10 miles    
Events Rain , Thunderstorm    
T = Trace of Precipitation, MM = Missing Value Source: NWS Daily Summary

Daily Weather History Graph

Daily Weather History Graph

Search for Another Location

Airport or City:

Astronomy

Aug. 06, 2019 Rise Set
Actual Time 6:56 AM EDT 8:15 PM EDT
Civil Twilight 6:31 AM EDT 8:40 PM EDT
Nautical Twilight 6:01 AM EDT 9:09 PM EDT
Astronomical Twilight 5:31 AM EDT 9:40 PM EDT
Moon 12:47 PM EDT No Moon Set
Length of Visible Light 14h 08m
Length of Day
13h 19m
Waxing Crescent, 38% of the Moon is Illuminated
Aug 6
Waxing Crescent
Aug 7
First Quarter
Aug 15
Full
Aug 23
Last Quarter
Aug 30
New

Hourly Weather History & Observations

Time (EDT) Temp. Heat Index Dew Point Humidity Pressure Visibility Wind Dir Wind Speed Gust Speed Precip Events Conditions
12:53 AM 79.0 °F - 75.0 °F 88% 30.00 in 10.0 mi East 3.5 mph - N/A   Clear
1:53 AM 82.0 °F 90.2 °F 77.0 °F 85% 29.98 in 10.0 mi SW 8.1 mph - N/A   Scattered Clouds
2:53 AM 82.9 °F 90.2 °F 75.0 °F 77% 29.96 in 10.0 mi SW 10.4 mph - N/A   Scattered Clouds
3:53 AM 82.9 °F 90.2 °F 75.0 °F 77% 29.96 in 10.0 mi SW 8.1 mph - N/A   Partly Cloudy
4:53 AM 82.9 °F 90.2 °F 75.0 °F 77% 29.96 in 10.0 mi South 3.5 mph - N/A   Clear
5:53 AM 79.0 °F - 75.9 °F 90% 29.96 in 10.0 mi ESE 5.8 mph - N/A   Scattered Clouds
6:10 AM 78.1 °F - 75.9 °F 93% 29.97 in 10.0 mi SE 6.9 mph - 0.00 in   Mostly Cloudy
6:44 AM 78.1 °F - 75.0 °F 90% 29.97 in 10.0 mi ESE 5.8 mph - 0.04 in Thunderstorm Mostly Cloudy
6:53 AM 78.1 °F - 75.0 °F 90% 29.97 in 10.0 mi ENE 4.6 mph - 0.04 in   Scattered Clouds
7:14 AM 77.0 °F - 75.0 °F 94% 29.98 in 10.0 mi NE 8.1 mph - N/A Thunderstorm Thunderstorm
7:36 AM 77.0 °F - 73.9 °F 90% 30.00 in 6.0 mi North 13.8 mph 20.7 mph 0.06 in Rain , Thunderstorm Light Thunderstorms and Rain
7:42 AM 75.9 °F - 73.0 °F 91% 30.00 in 6.0 mi North 8.1 mph 20.7 mph 0.24 in Rain Heavy Rain
7:51 AM 75.2 °F - 73.4 °F 94% 30.01 in 6.0 mi NNE 4.6 mph - 0.30 in Rain , Thunderstorm Heavy Thunderstorms and Rain
7:53 AM 75.9 °F - 73.9 °F 94% 30.01 in 6.0 mi ENE 4.6 mph - 0.31 in Rain , Thunderstorm Heavy Thunderstorms and Rain
8:13 AM 75.9 °F - 75.0 °F 97% 30.01 in 10.0 mi NNE 5.8 mph - 0.03 in Rain , Thunderstorm Light Rain
8:20 AM 75.9 °F - 75.0 °F 97% 30.00 in 10.0 mi NE 4.6 mph - 0.03 in   Scattered Clouds
8:29 AM 75.9 °F - 75.0 °F 97% 30.01 in 10.0 mi Calm Calm - 0.03 in Thunderstorm Partly Cloudy
8:44 AM 75.9 °F - 75.0 °F 97% 30.00 in 10.0 mi North 3.5 mph - 0.03 in Rain Light Rain
8:53 AM 77.0 °F - 75.0 °F 94% 30.00 in 10.0 mi NNE 3.5 mph - 0.03 in Rain Light Rain
9:53 AM 79.0 °F - 75.0 °F 88% 29.99 in 10.0 mi WNW 4.6 mph - 0.00 in   Clear
10:53 AM 82.0 °F 89.4 °F 75.9 °F 82% 30.00 in 10.0 mi Calm Calm - N/A   Clear
11:53 AM 86.0 °F 96.0 °F 75.9 °F 72% 30.00 in 10.0 mi West 5.8 mph - N/A   Clear
12:53 PM 88.0 °F 98.5 °F 75.9 °F 67% 30.00 in 10.0 mi West 11.5 mph - N/A   Clear
1:53 PM 89.1 °F 103.2 °F 78.1 °F 70% 29.97 in 10.0 mi West 11.5 mph - N/A   Scattered Clouds
2:53 PM 89.1 °F 101.4 °F 77.0 °F 67% 29.96 in 10.0 mi West 10.4 mph - N/A   Scattered Clouds
3:53 PM 89.1 °F 100.2 °F 75.9 °F 65% 29.95 in 10.0 mi West 11.5 mph - N/A   Clear
4:53 PM 89.1 °F 100.2 °F 75.9 °F 65% 29.94 in 10.0 mi WNW 9.2 mph - N/A   Clear
5:53 PM 89.1 °F 99.1 °F 75.0 °F 63% 29.95 in 10.0 mi West 8.1 mph - N/A   Clear
6:53 PM 88.0 °F 98.5 °F 75.9 °F 67% 29.96 in 10.0 mi West 6.9 mph - N/A   Clear
7:53 PM 86.0 °F 95.1 °F 75.0 °F 70% 29.97 in 10.0 mi West 6.9 mph - N/A   Clear
8:53 PM 80.1 °F 84.5 °F 73.9 °F 81% 29.99 in 10.0 mi ESE 11.5 mph - N/A   Mostly Cloudy
9:13 PM 80.1 °F 84.2 °F 73.0 °F 79% 29.99 in 10.0 mi ESE 6.9 mph - N/A   Mostly Cloudy
9:53 PM 80.1 °F 84.5 °F 73.9 °F 81% 29.98 in 10.0 mi SSE 6.9 mph - N/A   Clear
10:53 PM 79.0 °F - 73.0 °F 82% 29.99 in 10.0 mi SE 8.1 mph - N/A   Clear
11:53 PM 79.0 °F - 73.9 °F 84% 29.97 in 10.0 mi SE 6.9 mph - N/A   Partly Cloudy